When you browse on this site, cookies collect data to enhance your experience and personalize the content and advertising you see.
Visit our Privacy Policy to learn more. By continuing to use the site, you agree to this use of cookies and data.
  • In Romania
  • List of Countries
  • For 7 days
  • Water Temperature
  • Satellite Maps
  • Weather Map
  • Weather Widgets
  • user-avatar
    Login

    Hourly Weather Mniszow

    Today, 22 February, Friday

    Time Temperature Precipitation Wind Pressure Humidity
    00:00 +5°C° 0.4 mm 5 mps 744 mmHg 86%
    01:00 +4°C° 0 mm 4 mps 743 mmHg 86%
    02:00 +4°C° 0.6 mm 4 mps 743 mmHg 87%
    03:00 +3°C° 0.6 mm 5 mps 743 mmHg 88%
    04:00 +3°C° 0.6 mm 5 mps 743 mmHg 89%
    05:00 +2°C° 0.6 mm 6 mps 744 mmHg 87%
    06:00 -1°C° 0.6 mm 7 mps 745 mmHg 85%
    07:00 -2°C° 0.6 mm 8 mps 746 mmHg 82%
    08:00 -3°C° 0.1 mm 7 mps 747 mmHg 77%
    09:00 -3°C° 0.1 mm 7 mps 749 mmHg 71%
    10:00 -4°C° 0.1 mm 7 mps 750 mmHg 65%
    11:00 -3°C° 0 mm 7 mps 751 mmHg 59%
    12:00 -3°C° 0 mm 7 mps 752 mmHg 52%
    13:00 -3°C° 0 mm 7 mps 753 mmHg 46%
    14:00 -3°C° 0 mm 7 mps 753 mmHg 46%
    15:00 -4°C° 0 mm 7 mps 754 mmHg 46%
    16:00 -4°C° 0 mm 6 mps 754 mmHg 45%
    17:00 -5°C° 0 mm 6 mps 755 mmHg 46%
    18:00 -6°C° 0 mm 5 mps 756 mmHg 47%
    19:00 -6°C° 0 mm 5 mps 756 mmHg 48%
    20:00 -6°C° 0 mm 5 mps 757 mmHg 45%
    21:00 -6°C° 0 mm 5 mps 758 mmHg 43%
    22:00 -6°C° 0 mm 5 mps 758 mmHg 40%
    23:00 -6°C° 0 mm 5 mps 759 mmHg 40%

    Tomorrow, 23 February, Saturday

    Time Temperature Precipitation Wind Pressure Humidity
    00:00 -7°C° 0 mm 5 mps 759 mmHg 41%
    01:00 -7°C° 0 mm 4 mps 759 mmHg 41%
    02:00 -7°C° 0 mm 4 mps 760 mmHg 43%
    03:00 -7°C° 0 mm 4 mps 760 mmHg 44%
    04:00 -6°C° 0 mm 3 mps 760 mmHg 46%
    05:00 -6°C° 0 mm 3 mps 760 mmHg 47%
    06:00 -6°C° 0 mm 3 mps 760 mmHg 49%
    07:00 -7°C° 0 mm 3 mps 760 mmHg 51%
    08:00 -6°C° 0 mm 3 mps 761 mmHg 48%
    09:00 -5°C° 0 mm 3 mps 761 mmHg 45%
    10:00 -5°C° 0 mm 3 mps 761 mmHg 43%
    11:00 -4°C° 0 mm 3 mps 761 mmHg 40%
    12:00 -2°C° 0 mm 3 mps 761 mmHg 38%
    13:00 -2°C° 0 mm 3 mps 761 mmHg 35%
    14:00 -2°C° 0 mm 2 mps 761 mmHg 35%
    15:00 -2°C° 0 mm 2 mps 760 mmHg 36%
    16:00 -2°C° 0 mm 2 mps 760 mmHg 36%
    17:00 0°C° 0 mm 1 mps 760 mmHg 40%
    18:00 -1°C° 0 mm 1 mps 760 mmHg 44%
    19:00 -2°C° 0 mm 1 mps 760 mmHg 47%
    20:00 -2°C° 0 mm 1 mps 760 mmHg 48%
    21:00 -2°C° 0 mm 1 mps 760 mmHg 49%
    22:00 -3°C° 0 mm 0 mps 760 mmHg 49%
    23:00 -2°C° 0 mm 1 mps 760 mmHg 50%

    Day after tomorrow, 24 February, Sunday

    Time Temperature Precipitation Wind Pressure Humidity
    00:00 -2°C° 0 mm 1 mps 760 mmHg 50%
    01:00 -2°C° 0 mm 1 mps 760 mmHg 50%
    02:00 -2°C° 0 mm 1 mps 760 mmHg 49%
    03:00 -2°C° 0 mm 1 mps 759 mmHg 47%
    04:00 -1°C° 0 mm 1 mps 759 mmHg 46%
    05:00 -1°C° 0 mm 1 mps 759 mmHg 46%
    06:00 -1°C° 0 mm 1 mps 759 mmHg 45%
    07:00 -1°C° 0 mm 1 mps 759 mmHg 45%
    08:00 0°C° 0 mm 1 mps 759 mmHg 40%
    09:00 -1°C° 0 mm 2 mps 759 mmHg 35%
    10:00 +1°C° 0 mm 2 mps 759 mmHg 31%
    11:00 +2°C° 0 mm 2 mps 758 mmHg 29%
    12:00 +3°C° 0 mm 2 mps 758 mmHg 27%
    13:00 +4°C° 0 mm 3 mps 758 mmHg 25%
    14:00 +4°C° 0 mm 2 mps 758 mmHg 29%
    15:00 +4°C° 0 mm 2 mps 758 mmHg 33%
    16:00 +4°C° 0 mm 2 mps 758 mmHg 38%
    17:00 +2°C° 0 mm 2 mps 758 mmHg 40%
    18:00 +1°C° 0 mm 2 mps 758 mmHg 43%
    19:00 -1°C° 0 mm 2 mps 758 mmHg 46%
    20:00 -1°C° 0 mm 2 mps 758 mmHg 47%
    21:00 -1°C° 0 mm 2 mps 758 mmHg 48%
    22:00 -1°C° 0 mm 3 mps 758 mmHg 48%
    23:00 -1°C° 0 mm 3 mps 758 mmHg 49%

    25 February, Monday

    Time Temperature Precipitation Wind Pressure Humidity
    00:00 -1°C° 0 mm 3 mps 758 mmHg 50%
    01:00 -1°C° 0 mm 3 mps 758 mmHg 51%
    02:00 -1°C° 0 mm 3 mps 758 mmHg 52%
    03:00 -2°C° 0 mm 4 mps 757 mmHg 53%
    04:00 -2°C° 0 mm 4 mps 757 mmHg 54%
    05:00 -2°C° 0 mm 4 mps 757 mmHg 56%
    06:00 -2°C° 0 mm 4 mps 757 mmHg 57%
    07:00 -2°C° 0 mm 4 mps 757 mmHg 59%
    08:00 -1°C° 0 mm 4 mps 757 mmHg 57%
    09:00 +1°C° 0 mm 4 mps 757 mmHg 55%
    10:00 +2°C° 0 mm 5 mps 757 mmHg 53%
    11:00 +3°C° 0 mm 5 mps 757 mmHg 55%
    12:00 +5°C° 0 mm 5 mps 756 mmHg 57%
    13:00 +6°C° 0 mm 5 mps 756 mmHg 58%
    14:00 +6°C° 0 mm 4 mps 756 mmHg 63%
    15:00 +5°C° 0 mm 4 mps 756 mmHg 67%
    16:00 +5°C° 0 mm 3 mps 756 mmHg 71%
    17:00 +4°C° 0 mm 3 mps 756 mmHg 77%
    18:00 +4°C° 0 mm 2 mps 756 mmHg 83%
    19:00 +3°C° 0 mm 2 mps 756 mmHg 89%
    20:00 +2°C° 0 mm 2 mps 756 mmHg 90%
    21:00 +2°C° 0 mm 2 mps 756 mmHg 91%
    22:00 +1°C° 0 mm 2 mps 756 mmHg 92%
    23:00 +1°C° 0 mm 2 mps 755 mmHg 92%

    26 February, Tuesday

    Time Temperature Precipitation Wind Pressure Humidity
    00:00 0°C° 0 mm 3 mps 755 mmHg 92%
    01:00 0°C° 0 mm 3 mps 754 mmHg 92%
    02:00 0°C° 0 mm 3 mps 754 mmHg 92%
    03:00 -1°C° 0 mm 4 mps 753 mmHg 91%
    04:00 0°C° 0 mm 4 mps 753 mmHg 91%
    05:00 0°C° 0 mm 4 mps 752 mmHg 89%
    06:00 0°C° 0 mm 5 mps 752 mmHg 86%
    07:00 0°C° 0 mm 5 mps 751 mmHg 84%
    08:00 +1°C° 0 mm 6 mps 751 mmHg 79%
    09:00 +2°C° 0 mm 6 mps 750 mmHg 74%
    10:00 +2°C° 0 mm 6 mps 750 mmHg 70%
    11:00 +3°C° 0.1 mm 6 mps 750 mmHg 71%
    12:00 +3°C° 0.1 mm 6 mps 750 mmHg 72%
    13:00 +3°C° 0.1 mm 6 mps 749 mmHg 73%
    14:00 +3°C° 0 mm 6 mps 749 mmHg 72%
    15:00 +4°C° 0 mm 6 mps 749 mmHg 72%
    16:00 +4°C° 0 mm 6 mps 749 mmHg 71%
    17:00 +3°C° 0 mm 6 mps 749 mmHg 75%
    18:00 +3°C° 0 mm 6 mps 749 mmHg 79%
    19:00 +2°C° 0 mm 6 mps 749 mmHg 83%
    20:00 +1°C° 0 mm 5 mps 750 mmHg 80%
    21:00 +1°C° 0 mm 5 mps 750 mmHg 78%
    22:00 +1°C° 0 mm 5 mps 750 mmHg 76%
    23:00 0°C° 0 mm 4 mps 750 mmHg 77%

    27 February, Wednesday

    Time Temperature Precipitation Wind Pressure Humidity
    00:00 0°C° 0 mm 4 mps 750 mmHg 79%
    01:00 -1°C° 0 mm 4 mps 750 mmHg 80%
    02:00 -1°C° 0 mm 4 mps 750 mmHg 83%
    03:00 -2°C° 0 mm 4 mps 750 mmHg 85%
    04:00 -1°C° 0 mm 3 mps 750 mmHg 88%
    05:00 -1°C° 0 mm 3 mps 751 mmHg 89%
    06:00 -1°C° 0 mm 3 mps 751 mmHg 90%
    07:00 -1°C° 0 mm 3 mps 751 mmHg 91%
    08:00 0°C° 0 mm 3 mps 751 mmHg 83%
    09:00 +2°C° 0 mm 3 mps 751 mmHg 75%
    10:00 +3°C° 0 mm 3 mps 751 mmHg 67%
    11:00 +4°C° 0 mm 3 mps 751 mmHg 61%
    12:00 +5°C° 0 mm 3 mps 750 mmHg 55%
    13:00 +7°C° 0 mm 3 mps 750 mmHg 49%
    14:00 +7°C° 0 mm 3 mps 750 mmHg 49%
    15:00 +7°C° 0 mm 3 mps 749 mmHg 50%
    16:00 +6°C° 0 mm 4 mps 749 mmHg 50%
    17:00 +5°C° 0 mm 3 mps 749 mmHg 56%
    18:00 +4°C° 0 mm 3 mps 748 mmHg 61%
    19:00 +3°C° 0 mm 3 mps 748 mmHg 66%
    20:00 +1°C° 0 mm 4 mps 747 mmHg 66%
    21:00 +1°C° 0 mm 4 mps 747 mmHg 65%
    22:00 +1°C° 0 mm 4 mps 746 mmHg 64%
    23:00 +1°C° 0 mm 4 mps 746 mmHg 61%
    Show more